Tracking 30970 objects as of 3-Jul-2025
HD Live streaming from Space Station
objects crossing your sky now

STARLINK-6252

Track STARLINK-6252 now!
10-day predictions
STARLINK-6252 is classified as:


NORAD ID: 56555
Int'l Code: 2023-065BE
Perigee: 565.4 km
Apogee: 567.0 km
Inclination: 43.0 °
Period: 95.8 minutes
Semi major axis: 6937 km
RCS: Unknown
Launch date: May 14, 2023
Source: United States (US)
Launch site: AIR FORCE EASTERN TEST RANGE (AFETR)
Your satellite tracking list
Your tracking list is empty




NASA's NSSDC Master Catalog

Two Line Element Set (TLE):
1 56555U 23065BE  25183.28658444 -.00000096  00000-0  79916-5 0  9995
2 56555  43.0033 143.4562 0001144 279.2468  80.8245 15.02533303118815
Source of the keplerian elements: AFSPC